Location: Brantley
(31.5822°N, 86.2569°W)
Time: 18:28:38
(UTC+00:00)

Courier 1B Rocket - Pass Details

Date: 24 February 2026
Orbit: 920 x 1201 km, 28.2° (Epoch: 10 March)

Event Time Altitude Azimuth Distance (km) Brightness Sun altitude
Rises 20:43:18 0° 227° (SW) 3,738 9.1 33.2°
Reaches altitude 10° 20:46:23 10° 216° (SW) 2,743 8.7 32.7°
Maximum altitude 20:51:59 30° 158° (SSE) 1,648 6.7 31.8°
Drops below altitude 10° 20:57:21 10° 99° (E) 2,627 7.0 30.9°
Sets 21:00:14 0° 89° (E) 3,556 7.5 30.4°
